Voltar ao catálogo

YAOGAN-42 02

AtivoMilitarVLEO
NORAD 59557·PAYLOAD·🇨🇳 China

Lançado Apr 20, 2024 de Xichang Satellite Launch Center

Loading…

Próximas Passagens (próximas 24 horas)

TLE

AtualizadoSource: Space-Track

Época: Sep 14, 2026, 21:54 UTC

1 59557U 24075A   26257.91260424  .00008397  00000-0  34826-3 0  9992
2 59557  35.0006  65.3128 0005631 264.1829  95.8244 15.23125662133775

Acompanhe YAOGAN-42 02 em tempo real com AllMySat

Download on the App Store